Location: Unspecified
(0.0000°N, 0.0000°E)
Time: 18:46:39
(UTC+00:00)

ISS - Visible Passes

Search period start: 04 March 2015 00:00
Search period end: 14 March 2015 00:00
Orbit: 395 x 408 km, 51.6° (Epoch: 04 March)

Date Brightness Start Highest point End Pass type
(mag) Time Alt. Az. Time Alt. Az. Time Alt. Az.
04 Mar -1.6 05:19:27 10° SSW 05:22:27 34° SE 05:25:26 10° ENE visible
05 Mar -0.2 04:27:38 10° SSE 04:29:09 13° SE 04:30:49 10° E visible
06 Mar -3.3 05:10:22 29° WSW 05:11:42 53° NW 05:14:50 10° NNE visible
07 Mar -0.4 04:20:03 14° NE 04:20:03 14° NE 04:20:34 10° NE visible
